Weather History for West Palm Beach, FL

Change the Weather History Date:

Saturday, April 12, 2014

  Actual Average Record
Temperature  
Mean Temperature 76 °F 73 °F  
Max Temperature 81 °F 81 °F 93 °F (1961)
Min Temperature 71 °F 65 °F 46 °F (1918)
Degree Days  
Heating Degree Days 0 0  
Month to date heating degree days 0 0  
Since 1 July heating degree days 122 229  
Cooling Degree Days 11 8  
Month to date cooling degree days 109 93  
Year to date cooling degree days 657 521  
Growing Degree Days 26 (Base 50)    
Moisture  
Dew Point 62 °F    
Average Humidity 64    
Maximum Humidity 79    
Minimum Humidity 49    
Precipitation  
Precipitation T in 0.13 in 6.72 in (1926)
Month to date precipitation 0.38 1.61  
Year to date precipitation 14.26 12.15  
Snow  
Snow 0.00 in - - ()
Month to date snowfall 0.0  
Since 1 July snowfall 0.0  
Snow Depth 0.00 in    
Sea Level Pressure  
Sea Level Pressure 30.13 in    
Wind  
Wind Speed 12 mph (ENE)    
Max Wind Speed 20 mph    
Max Gust Speed 25 mph    
Visibility 10 miles    
Events      
T = Trace of Precipitation, MM = Missing Value Source: NWS Daily Summary

Daily Weather History Graph

Daily Weather History Graph

Search for Another Location

Airport:

Trip Planner

Search our weather history database for the weather conditions in past years. The results will help you decide how hot, cold, wet, or windy it might be!

Date:

Astronomy

Apr. 12, 2014 Rise Set
Actual Time 6:59 AM EDT 7:42 PM EDT
Civil Twilight 6:36 AM EDT 8:06 PM EDT
Nautical Twilight 6:08 AM EDT 8:34 PM EDT
Astronomical Twilight 5:40 AM EDT 9:02 PM EDT
Moon 5:32 PM EDT (4/12) 5:10 AM EDT (4/12)
Length of Visible Light 13h 30m
Length of Day
12h 43m
Waxing Gibbous, 93% of the Moon is Illuminated
Apr 12
Waxing Gibbous
Apr 15
Full
Apr 22
Last Quarter
Apr 29
New
May 6
First Quarter

Hourly Weather History & Observations

Time (EDT) Temp. Heat Index Dew Point Humidity Pressure Visibility Wind Dir Wind Speed Gust Speed Precip Events Conditions
12:53 AM 73.0 °F - 62.1 °F 68% 30.14 in 10.0 mi East 9.2 mph - N/A   Scattered Clouds
1:53 AM 73.0 °F - 62.1 °F 68% 30.12 in 10.0 mi East 9.2 mph - N/A   Scattered Clouds
2:53 AM 72.0 °F - 63.0 °F 73% 30.12 in 10.0 mi East 8.1 mph - N/A   Scattered Clouds
3:53 AM 72.0 °F - 64.0 °F 76% 30.11 in 10.0 mi East 5.8 mph - N/A   Partly Cloudy
4:53 AM 72.0 °F - 62.1 °F 71% 30.10 in 10.0 mi East 5.8 mph - N/A   Partly Cloudy
5:53 AM 71.1 °F - 62.1 °F 73% 30.12 in 10.0 mi ENE 4.6 mph - N/A   Partly Cloudy
6:53 AM 72.0 °F - 63.0 °F 73% 30.14 in 10.0 mi ENE 5.8 mph - N/A   Mostly Cloudy
7:53 AM 73.0 °F - 63.0 °F 71% 30.15 in 10.0 mi ENE 5.8 mph - N/A   Mostly Cloudy
8:53 AM 75.0 °F - 63.0 °F 66% 30.17 in 10.0 mi ENE 9.2 mph - N/A   Mostly Cloudy
9:53 AM 77.0 °F - 63.0 °F 62% 30.18 in 10.0 mi NE 10.4 mph - N/A   Scattered Clouds
10:53 AM 79.0 °F - 62.1 °F 56% 30.19 in 10.0 mi NE 11.5 mph - N/A   Scattered Clouds
11:53 AM 80.1 °F 81.1 °F 61.0 °F 52% 30.18 in 10.0 mi NE 12.7 mph - N/A   Scattered Clouds
12:53 PM 81.0 °F 81.7 °F 61.0 °F 50% 30.16 in 10.0 mi NE 15.0 mph - N/A   Scattered Clouds
1:53 PM 80.1 °F 80.9 °F 60.1 °F 50% 30.14 in 10.0 mi ENE 17.3 mph 23.0 mph N/A   Scattered Clouds
2:53 PM 81.0 °F 81.6 °F 60.1 °F 49% 30.12 in 10.0 mi NE 15.0 mph 24.2 mph N/A   Scattered Clouds
3:53 PM 81.0 °F 81.3 °F 59.0 °F 47% 30.11 in 10.0 mi NE 19.6 mph - N/A   Scattered Clouds
4:53 PM 79.0 °F - 60.1 °F 52% 30.09 in 10.0 mi ENE 13.8 mph 19.6 mph N/A   Scattered Clouds
5:53 PM 78.1 °F - 61.0 °F 56% 30.09 in 10.0 mi ENE 17.3 mph - N/A   Scattered Clouds
6:53 PM 77.0 °F - 63.0 °F 62% 30.09 in 10.0 mi ENE 12.7 mph 21.9 mph N/A   Mostly Cloudy
7:53 PM 75.9 °F - 64.0 °F 67% 30.09 in 10.0 mi ENE 12.7 mph - N/A   Mostly Cloudy
8:53 PM 75.0 °F - 63.0 °F 66% 30.11 in 10.0 mi East 13.8 mph - N/A   Scattered Clouds
9:53 PM 75.0 °F - 63.0 °F 66% 30.12 in 10.0 mi ENE 15.0 mph - N/A   Mostly Cloudy
10:53 PM 75.0 °F - 63.0 °F 66% 30.11 in 10.0 mi East 15.0 mph - N/A   Mostly Cloudy
11:53 PM 75.0 °F - 63.0 °F 66% 30.10 in 10.0 mi East 12.7 mph - N/A   Mostly Cloudy